sat.trackr.live / text

‹ back to catalog

STARLINK-5359

NORAD 54864 · 2022-177AW

PAYLOAD ACTIVE UNKNOWN

§ Identity

Operator
Country
US
Launch date
2022-12-28
Launch site
AFETR
Launch vehicle
Mass (kg)
RCS (m²)

Purposes: comms

External: N2YO · Heavens-Above · Gunter

§ Orbital elements

Epoch: 2026-09-19T22:20:10.226688Z

Period
94.27 min
Inclination
43.0013°
Eccentricity
0.0000986
Mean motion
15.27565804 rev/d
Perigee alt
482.4 km
Apogee alt
483.8 km
Semi-major
6,861.2 km
B*
2.4118e-5
RAAN
104.9105°
Arg perigee
258.2767°
Mean anomaly
101.7974°
Rev number
20,679

§ Raw data

STARLINK-53591 54864U 22177AW  26262.93067392  .00000402  00000+0  24118-4 0  99982 54864  43.0013 104.9105 0000986 258.2767 101.7974 15.27565804206796

JSON: /api/v1/satellites/54864 · /tle

For live sub-satellite position, see the globe view (requires WebGL).

§ Visibility from observer

Set your observer location to see the next 7 days of passes ≥ 10°. The values pass through the URL so the page stays shareable.

No JS? Fill the form by hand. The geolocation button needs JavaScript.